Location: Spruce Knob
(38.6995°N, 79.5330°W)
Time: 17:00:24
(UTC-04:00)

Max Valier Satellite - Visible Passes

Search period start: 30 March 2023 00:00
Search period end: 09 April 2023 00:00
Orbit: 454 x 467 km, 97.2° (Epoch: 30 March)

Date Brightness Start Highest point End Pass type
(mag) Time Alt. Az. Time Alt. Az. Time Alt. Az.
30 Mar ? 21:09:58 10° S 21:13:11 39° W 21:16:26 10° NNW visible
31 Mar ? 20:38:03 10° SSE 20:41:26 67° ENE 20:44:51 10° N visible
01 Apr ? 20:07:00 10° SE 20:09:46 24° ENE 20:12:34 10° NNE visible
01 Apr ? 21:40:33 10° SW 21:42:44 16° W 21:44:55 10° NW visible
02 Apr ? 21:07:29 10° S 21:10:44 42° W 21:14:01 10° NNW visible
03 Apr ? 20:35:28 10° SSE 20:38:50 61° ENE 20:42:13 10° N visible
04 Apr ? 21:37:36 10° SW 21:39:56 17° W 21:42:16 10° NW visible
05 Apr ? 21:04:30 10° S 21:07:47 47° W 21:11:07 10° NNW visible
06 Apr ? 20:32:24 10° SSE 20:35:43 55° ENE 20:39:05 10° N visible
07 Apr ? 21:34:07 10° SW 21:36:37 19° W 21:39:08 10° NW visible
08 Apr ? 21:00:59 10° S 21:04:20 53° W 21:07:41 10° NNW visible
